TimeMST,TemperatureF,Dew PointF,Humidity,Sea Level PressureIn,VisibilityMPH,Wind Direction,Wind SpeedMPH,Gust SpeedMPH,PrecipitationIn,Events,Conditions,WindDirDegrees,DateUTC
12:53 AM,68.0,41.0,37,29.91,10.0,South,6.9,-,N/A,,Clear,170,2013-08-05 07:53:00
1:53 AM,66.9,36.0,32,29.91,10.0,South,5.8,-,N/A,,Clear,180,2013-08-05 08:53:00
2:53 AM,63.0,39.0,41,29.92,10.0,SSW,5.8,-,N/A,,Clear,210,2013-08-05 09:53:00
3:53 AM,63.0,37.9,40,29.93,10.0,Calm,Calm,-,N/A,,Clear,0,2013-08-05 10:53:00
4:53 AM,62.1,37.9,41,29.93,10.0,SSW,3.5,-,N/A,,Clear,210,2013-08-05 11:53:00
5:53 AM,61.0,37.0,41,29.95,10.0,SSW,4.6,-,N/A,,Clear,200,2013-08-05 12:53:00
6:53 AM,64.9,39.9,40,29.96,10.0,Calm,Calm,-,N/A,,Clear,0,2013-08-05 13:53:00
7:53 AM,72.0,39.0,30,29.96,10.0,Calm,Calm,-,N/A,,Clear,0,2013-08-05 14:53:00
8:53 AM,75.9,41.0,29,29.96,10.0,Calm,Calm,-,N/A,,Clear,0,2013-08-05 15:53:00
9:53 AM,84.9,36.0,17,29.94,10.0,Variable,5.8,-,N/A,,Clear,0,2013-08-05 16:53:00
10:53 AM,84.0,41.0,22,29.94,10.0,SE,16.1,28.8,N/A,,Scattered Clouds,130,2013-08-05 17:53:00
11:53 AM,84.9,41.0,21,29.93,10.0,ESE,11.5,23.0,N/A,,Scattered Clouds,110,2013-08-05 18:53:00
12:53 PM,84.9,43.0,23,29.93,10.0,SE,17.3,25.3,N/A,,Scattered Clouds,130,2013-08-05 19:53:00
1:53 PM,84.9,39.0,20,29.93,10.0,South,12.7,18.4,N/A,,Clear,190,2013-08-05 20:53:00
2:53 PM,86.0,37.9,18,29.91,10.0,South,12.7,17.3,N/A,,Partly Cloudy,190,2013-08-05 21:53:00
3:53 PM,86.0,35.1,16,29.89,10.0,WSW,8.1,16.1,N/A,,Scattered Clouds,250,2013-08-05 22:53:00
4:53 PM,87.1,35.1,16,29.87,10.0,WSW,13.8,-,N/A,,Scattered Clouds,250,2013-08-05 23:53:00
5:53 PM,84.9,35.1,17,29.87,10.0,SW,9.2,-,N/A,,Scattered Clouds,230,2013-08-06 00:53:00
6:53 PM,82.0,36.0,19,29.87,10.0,SW,10.4,-,N/A,,Scattered Clouds,230,2013-08-06 01:53:00
7:53 PM,79.0,39.9,25,29.87,10.0,SSW,6.9,-,N/A,,Clear,200,2013-08-06 02:53:00
8:53 PM,79.0,41.0,26,29.89,10.0,SE,4.6,-,N/A,,Clear,130,2013-08-06 03:53:00
9:53 PM,77.0,44.1,31,29.88,10.0,Calm,Calm,-,N/A,,Clear,0,2013-08-06 04:53:00
10:53 PM,75.0,44.1,33,29.88,10.0,Calm,Calm,-,N/A,,Scattered Clouds,0,2013-08-06 05:53:00
11:53 PM,73.9,45.0,35,29.88,10.0,South,4.6,-,0.00,Rain,Light Rain,190,2013-08-06 06:53:00